Find Starlink 31112

NORAD ID: 58680 Int'l Des: 2023-211 Owner: SPXS Country: US Constellation: starlink operational
LEOCIRCULAR

現在のビュー

3D地球を読み込み中...

About Starlink 31112

Starlink 31112 (NORAD 58680) is a starlink constellation satellite (v2 mini) launched Dec 29, 2023 by SPXS of US. It operates in LEO, CIRCULAR orbit with a mass of 730.00 kg.

Starlink 31112について

説明を読み込み中...

次回通過

Passes for default location (London). Set your location on the main map for personalized predictions.

高度履歴

Loading altitude history...

軌道要素

1 58680U 23211P 26177.74303062 -.00000995 00000-0 -26656-4 0 9998
2 58680 43.0016 189.3388 0000923 277.0224 83.0522 15.27570242140326
Epoch: Jun 26, 2026 • Age: 11 hours

現在のステータス

高度 486.6 km
速度 7.63 km/s
衛星直下点 42.34°N, 89.84°W
打ち上げ日 Dec 29, 2023
運用期間 2.4 years
タイプ internet

技術仕様

分類 Payload
質量 730.00 kg
乾燥質量 700.00 kg
総質量 730.00 kg
長さ 0.30 m
直径 4.10 m
スパン 29.00 m
形状 Box + pan
製造者 SPXS
バスタイプ Starlink V2M
フェーズステータス In Orbit
所有者/国 SPXS/US

Most Searched